CAPE
11 20 15 28 13 11 0 0 0 2 3 0 0 0 0 0 0 0 0 0 0 0 0 0 0 0 0 0 0 0 0 0 0 0 0 0 0 0 0 0 0 0 0 0 0
6 19 14 12 15 19 19 0 0 0 0 0 0 0 0 0 0 0 0 0 0 0 0 0 0 0 0 0 0 0 0 0 0 0 0 0 0 0 0 0 0 0 0 0 0
20 9 18 14 13 11 16 18 0 0 0 0 0 0 0 0 0 0 0 0 0 0 0 0 0 0 0 0 0 0 0 0 0 0 0 0 0 0 0 0 0 0 0 0 0
37 25 15 11 13 22 24 14 14 0 0 0 0 0 0 0 0 0 0 0 0 0 0 0 0 0 0 0 0 0 0 0 0 0 0 0 0 0 0 0 0 0 0 0 0
39 35 19 10 7 9 31 28 26 12 18 1 0 0 0 0 0 0 0 0 0 0 0 0 0 0 0 0 0 0 0 0 0 0 0 0 0 0 0 0 0 0 0 0 0
8 11 24 16 13 5 34 27 29 17 26 17 0 0 0 0 0 0 0 0 0 0 0 0 0 0 0 0 0 0 0 0 0 0 0 0 0 0 0 0 0 0 0 0 0
21 11 22 3 5 6 19 42 27 11 18 33 18 4 0 0 0 0 0 0 0 0 0 0 0 0 0 0 0 0 0 0 0 0 0 0 0 0 0 0 0 0 0 0 0
15 25 13 35 6 1 28 28 40 36 29 31 30 14 0 0 0 0 0 0 0 0 0 0 0 0 0 0 0 0 0 0 0 0 0 0 0 0 0 0 0 0 0 0 0
12 17 17 12 18 9 12 32 13 34 33 37 23 3 0 0 0 0 0 0 0 0 0 0 0 0 0 0 0 0 0 0 0 0 0 0 0 0 0 0 0 0 0 0 0
40 14 19 16 14 5 8 3 25 33 21 32 23 3 2 0 0 0 0 0 0 0 0 0 0 0 0 0 0 0 0 0 0 0 0 0 0 0 0 0 0 0 0 0 0
35 32 18 25 24 28 10 17 10 6 5 8 0 0 0 0 0 0 0 0 2 0 0 1 0 0 0 0 0 0 0 0 0 0 0 0 0 0 0 0 0 0 0 0 0
1 26 44 38 51 57 11 6 0 0 1 6 1 20 0 0 0 0 0 0 7 0 5 1 0 0 0 0 0 0 0 0 0 0 0 0 0 0 0 0 0 0 0 0 0
44 30 22 56 71 60 10 0 0 10 5 0 0 2 7 7 0 0 0 0 0 1 1 0 0 0 0 0 0 0 0 0 0 0 0 0 0 0 0 0 0 0 0 0 0
12 28 13 24 43 36 2 0 1 12 3 0 0 0 19 21 8 0 2 0 2 2 1 1 0 0 0 0 0 0 0 0 0 0 0 0 0 0 0 0 0 0 0 0 0
27 2 3 5 15 40 2 2 5 2 0 0 0 0 0 7 0 0 0 6 0 0 0 0 0 0 0 0 0 0 0 0 0 0 0 0 0 0 0 0 0 0 0 0 0
52 29 16 11 3 6 0 0 5 0 0 0 1 0 0 5 0 0 0 0 0 9 0 0 0 0 0 0 0 0 0 0 0 2 0 0 0 0 0 0 0 0 0 0 0
63 60 33 26 2 9 1 6 0 0 0 0 1 2 0 3 9 1 0 5 3 7 1 3 1 0 0 0 0 0 3 0 1 10 0 0 0 0 0 0 0 0 0 0 0
42 65 24 19 6 2 4 0 0 0 0 0 0 1 1 2 0 2 5 1 1 6 0 0 0 0 0 0 0 0 0 0 0 0 0 0 0 0 0 0 0 0 0 0 0
31 27 14 0 0 7 0 0 0 0 0 0 0 1 1 0 0 1 12 1 0 1 0 0 0 0 0 0 0 0 5 0 0 0 0 0 0 0 0 0 0 0 0 0 0
17 17 1 0 8 7 0 0 0 0 0 0 0 0 0 0 0 0 0 0 0 0 0 0 0 0 0 0 0 0 0 0 15 1 0 0 0 0 0 0 0 0 0 0 0
36 2 0 0 28 0 0 0 0 0 0 0 0 0 0 0 0 0 0 0 0 0 0 0 0 0 0 2 0 0 0 13 11 17 0 0 0 0 0 0 0 0 0 0 0
17 18 0 21 0 0 0 0 0 0 0 0 0 0 0 0 0 0 0 0 0 0 0 0 0 0 0 0 0 0 0 0 1 0 0 0 0 0 0 0 0 0 0 0 0
12 1 6 27 0 0 0 0 0 0 0 0 0 0 0 0 0 0 0 0 2 0 0 1 1 0 0 0 0 0 0 0 8 0 8 2 0 0 0 0 0 0 0 0 0
11 3 0 5 0 0 0 0 0 0 0 0 0 0 0 0 0 0 0 0 0 1 10 4 0 0 0 0 0 0 0 0 1 3 0 1 0 0 0 0 0 0 0 0 0
4 3 0 2 0 0 0 0 0 0 0 0 0 0 0 0 0 0 0 0 0 17 9 1 0 0 0 0 0 0 0 0 3 0 0 0 0 0 0 0 0 0 0 0 0
2 0 0 0 0 0 0 0 0 0 0 0 0 0 0 0 0 0 0 0 0 0 0 0 0 0 0 0 0 0 0 0 0 0 0 0 0 0 0 0 0 0 0 0 0
0 0 0 0 0 0 0 0 0 0 0 0 0 0 0 0 0 0 0 0 0 0 0 0 0 0 0 0 0 0 0 0 0 0 0 0 0 0 0 0 0 0 0 0 0
CIN
-2 -4 -4 -1 -0 -0 -0 -0 -0 -8 -20 -0 -0 -0 -0 -0 -0 -0 -0 -0 -0 -0 -0 -0 -0 -0 -0 -0 -0 -0 -0 -0 -0 -0 -0 -0 -0 -0 -0 -0 -0 -0 -0 -0 -0
-0 -1 -3 -6 -11 -2 -0 -0 -0 -0 -0 -0 -0 -0 -0 -0 -0 -0 -0 -0 -0 -0 -0 -0 -0 -0 -0 -0 -0 -0 -0 -0 -0 -0 -0 -0 -0 -0 -0 -0 -0 -0 -0 -0 -0
-2 -1 -1 -7 -9 -10 -4 -0 -0 -0 -0 -0 -0 -0 -0 -0 -0 -0 -0 -0 -0 -0 -0 -0 -0 -0 -0 -0 -0 -0 -0 -0 -0 -0 -0 -0 -0 -0 -0 -0 -0 -0 -0 -0 -0
-3 -3 -0 -0 -4 -7 -10 -4 -0 -0 -0 -0 -0 -0 -0 -0 -0 -0 -0 -0 -0 -0 -0 -0 -0 -0 -0 -0 -0 -0 -0 -0 -0 -0 -0 -0 -0 -0 -0 -0 -0 -0 -0 -0 -0
-6 -3 -5 -2 -1 -5 -8 -12 -5 -1 -1 -5 -0 -0 -0 -0 -0 -0 -0 -0 -0 -0 -0 -0 -0 -0 -0 -0 -0 -0 -0 -0 -0 -0 -0 -0 -0 -0 -0 -0 -0 -0 -0 -0 -0
-4 -13 -10 -6 -0 -1 -3 -5 -10 -7 -2 -6 -9 -0 -0 -0 -0 -0 -0 -0 -0 -0 -0 -0 -0 -0 -0 -0 -0 -0 -0 -0 -0 -0 -0 -0 -0 -0 -0 -0 -0 -0 -0 -0 -0
-5 -6 -21 -8 -15 -4 -9 -2 -7 -13 -5 -1 -9 -4 -0 -0 -0 -0 -0 -0 -0 -0 -0 -0 -0 -0 -0 -0 -0 -0 -0 -0 -0 -0 -0 -0 -0 -0 -0 -0 -0 -0 -0 -0 -0
-9 -5 -9 -24 -13 -8 -5 -1 -3 -13 -11 -7 -1 -2 -0 -0 -0 -0 -0 -0 -0 -0 -0 -0 -0 -0 -0 -0 -0 -0 -0 -0 -0 -0 -0 -0 -0 -0 -0 -0 -0 -0 -0 -0 -0
-11 -8 -8 -8 -11 -14 -5 -8 -6 -6 -10 -12 -1 -7 -0 -0 -0 -0 -0 -0 -0 -0 -0 -0 -0 -0 -0 -0 -0 -0 -0 -0 -0 -0 -0 -0 -0 -0 -0 -0 -0 -0 -0 -0 -0
-3 -8 -7 -8 -8 -14 -20 -5 -10 -5 -5 -14 -4 -2 -5 -0 -0 -0 -0 -0 -0 -0 -0 -0 -0 -0 -0 -0 -0 -0 -0 -0 -0 -0 -0 -0 -0 -0 -0 -0 -0 -0 -0 -0 -0
-7 -3 -11 -7 -4 -2 -3 -1 -0 -1 -2 -3 -1 -1 -0 -0 -0 -0 -0 -0 -13 -0 -0 -1 -0 -0 -0 -0 -0 -0 -0 -0 -0 -0 -0 -0 -0 -0 -0 -0 -0 -0 -0 -0 -0
-17 -13 -2 -3 -0 -0 -9 -0 -0 -0 -1 -8 -11 -1 -0 -0 -0 -0 -0 -0 -1 -0 -1 -1 -0 -0 -0 -0 -0 -0 -0 -0 -0 -0 -0 -0 -0 -0 -0 -0 -0 -0 -0 -0 -0
-0 -2 -5 -2 -1 -1 -1 -0 -0 -20 -1 -0 -0 -11 -8 -11 -0 -0 -0 -0 -0 -1 -0 -0 -0 -0 -0 -0 -0 -0 -0 -0 -0 -0 -0 -0 -0 -0 -0 -0 -0 -0 -0 -0 -0
-7 -0 -0 -10 -8 -0 -0 -2 -4 -16 -4 -0 -0 -0 -8 -5 -3 -0 -3 -0 -0 -0 -0 -2 -0 -0 -0 -0 -0 -0 -0 -0 -0 -0 -0 -0 -0 -0 -0 -0 -0 -0 -0 -0 -0
-1 -4 -0 -20 -74 -11 -1 -3 -8 -1 -0 -0 -0 -0 -0 -3 -0 -0 -0 -4 -0 -0 -0 -0 -0 -0 -0 -0 -0 -0 -0 -0 -0 -0 -0 -0 -0 -0 -0 -0 -0 -0 -0 -0 -0
-0 -6 -0 -1 -0 -2 -0 -0 -0 -0 -0 -0 -1 -0 -0 -4 -0 -0 -0 -0 -7 -3 -1 -0 -0 -0 -0 -0 -0 -0 -0 -0 -0 -6 -0 -0 -0 -0 -0 -0 -0 -0 -0 -0 -0
-0 -0 -0 -0 -0 -4 -2 -0 -0 -0 -0 -0 -0 -0 -0 -0 -1 -4 -1 -3 -1 -0 -1 -0 -0 -0 -0 -0 -0 -0 -7 -0 -1 -0 -0 -0 -0 -0 -0 -0 -0 -0 -0 -0 -0
-0 -1 -2 -0 -0 -1 -0 -0 -3 -0 -0 -0 -0 -0 -0 -1 -2 -1 -2 -6 -3 -1 -0 -0 -0 -0 -0 -0 -0 -0 -0 -0 -0 -0 -0 -0 -0 -0 -0 -0 -0 -0 -0 -0 -0
-2 -2 -1 -0 -6 -0 -0 -0 -0 -0 -0 -0 -0 -0 -0 -0 -0 -1 -1 -2 -0 -5 -0 -0 -0 -0 -0 -0 -0 -0 -5 -0 -0 -0 -0 -0 -0 -0 -0 -0 -0 -0 -0 -0 -0
-4 -8 -0 -0 -4 -0 -0 -0 -0 -0 -0 -0 -0 -0 -0 -0 -0 -0 -0 -1 -0 -0 -0 -0 -0 -0 -0 -0 -0 -0 -0 -1 -4 -1 -0 -0 -0 -0 -0 -0 -0 -0 -0 -0 -0
-2 -9 -0 -0 -0 -0 -0 -0 -0 -0 -0 -0 -0 -0 -0 -0 -0 -0 -0 -0 -0 -0 -0 -0 -0 -0 -0 -6 -0 -0 -0 -4 -4 -3 -0 -0 -0 -0 -0 -0 -0 -0 -0 -0 -0
-0 -1 -0 -7 -0 -0 -0 -0 -0 -0 -0 -0 -0 -0 -0 -0 -0 -0 -0 -0 -0 -0 -23 -0 -0 -0 -0 -0 -0 -0 -0 -0 -0 -0 -0 -0 -0 -0 -0 -0 -0 -0 -0 -0 -0
-1 -0 -0 -1 -0 -0 -0 -0 -0 -0 -0 -0 -0 -0 -0 -0 -0 -0 -0 -0 -29 -15 -10 -0 -13 -0 -0 -0 -0 -0 -0 -0 -7 -2 -1 -1 -0 -0 -0 -0 -0 -0 -0 -0 -0
-3 -0 -0 -5 -0 -0 -0 -0 -0 -0 -0 -0 -0 -0 -0 -0 -0 -0 -0 -0 -0 -40 -27 -24 -0 -0 -0 -0 -0 -0 -0 -0 -5 -0 -0 -6 -0 -0 -0 -0 -0 -0 -0 -0 -0
-6 -20 -2 -1 -0 -0 -0 -0 -0 -0 -0 -0 -0 -0 -0 -0 -0 -0 -0 -0 -8 -34 -37 -5 -0 -0 -0 -0 -0 -0 -0 -0 -7 -0 -0 -0 -0 -0 -0 -0 -0 -0 -0 -0 -0
-2 -0 -0 -0 -0 -0 -0 -0 -0 -0 -0 -0 -0 -0 -0 -0 -0 -0 -0 -0 -0 -0 -0 -0 -0 -0 -0 -0 -0 -0 -0 -0 -0 -0 -0 -0 -0 -0 -0 -0 -0 -0 -0 -0 -0
-0 -0 -0 -0 -0 -0 -0 -0 -0 -0 -0 -0 -0 -0 -0 -0 -0 -0 -0 -0 -0 -0 -0 -0 -0 -0 -0 -0 -0 -0 -0 -0 -0 -0 -0 -0 -0 -0 -0 -0 -0 -0 -0 -0 -0
Wind_Speed
29 29 28 26 26 26 26 26 26 25 25 26 27 27 28 29 30 27 29 22 19 19 18 17 17 17 16 19 17 17 23 21 19 15 17 21 19 18 17 15 17 16 16 19 5
30 30 29 29 28 28 27 26 26 25 25 26 27 27 28 30 31 34 26 23 21 20 21 19 18 18 20 22 22 23 27 28 22 19 18 20 21 22 21 17 18 18 18 10 3
32 32 30 30 30 30 30 27 26 25 24 25 26 27 28 28 32 29 23 19 20 20 21 20 20 19 23 22 24 27 31 27 25 21 22 26 27 24 21 21 18 17 11 5 3
34 32 33 33 33 34 31 30 28 27 25 25 25 26 27 23 31 22 17 17 18 18 20 22 22 24 26 26 26 31 34 29 29 27 28 28 26 28 23 21 18 22 13 5 2
32 33 32 32 34 35 35 31 30 27 26 25 25 25 25 27 28 21 18 17 17 17 21 23 25 26 29 28 29 34 33 32 34 37 33 31 32 32 33 29 29 27 18 6 4
34 30 30 31 32 35 35 32 31 30 27 26 25 23 26 36 24 24 21 21 20 19 20 23 25 26 29 31 29 28 34 38 37 38 37 40 39 31 35 26 29 26 25 16 10
37 35 33 32 29 31 34 31 30 31 30 27 26 26 33 35 23 24 24 24 24 22 22 21 24 26 28 32 31 33 37 36 35 35 36 32 45 40 46 39 44 42 35 30 24
38 37 34 33 31 29 29 31 31 30 29 28 26 29 41 29 30 34 28 26 23 21 21 21 20 26 29 28 30 34 37 43 33 32 33 31 50 38 37 37 47 48 47 42 34
39 37 36 34 31 30 29 28 30 30 30 29 29 32 42 30 33 31 26 25 23 23 22 22 21 27 27 33 38 36 43 40 42 34 33 35 47 43 39 36 39 39 39 41 43
41 38 36 34 30 29 28 27 27 30 29 28 30 32 37 31 28 26 24 23 24 24 25 26 26 32 33 35 47 43 42 41 41 33 36 41 51 46 39 36 39 42 40 40 42
40 40 36 33 29 26 24 26 29 35 35 36 33 35 30 29 22 26 23 23 27 28 33 30 36 43 40 37 35 35 39 41 38 38 42 46 51 49 50 47 44 43 42 44 44
40 38 37 33 29 25 24 31 29 26 37 41 44 39 35 23 30 28 18 28 32 38 32 35 48 39 33 36 40 42 44 45 40 38 41 47 56 51 49 50 50 50 51 49 46
40 37 37 33 28 26 29 30 21 21 36 37 42 44 37 36 36 32 25 27 34 37 38 41 37 33 38 38 41 43 47 46 47 41 46 49 66 57 50 53 49 47 46 45 46
39 38 37 33 31 29 32 23 17 17 40 41 40 42 37 31 41 31 26 27 31 40 37 42 46 33 34 41 39 49 39 41 42 42 50 34 70 58 49 54 53 51 49 49 48
37 36 36 34 31 34 28 20 17 17 51 33 33 23 32 38 30 35 27 29 36 35 35 43 38 41 48 42 33 41 33 37 39 44 46 50 53 53 41 50 52 50 52 51 50
40 38 34 36 38 28 22 19 17 35 51 29 24 29 31 38 35 27 34 29 31 35 38 43 31 34 39 37 38 31 36 37 39 42 56 58 50 61 53 50 48 46 47 48 48
39 38 36 29 37 29 25 23 37 49 25 27 29 26 30 36 43 36 35 42 41 45 50 45 47 39 33 38 35 38 38 45 49 51 63 46 49 66 44 42 45 43 43 46 47
36 38 38 45 46 33 31 32 48 36 32 20 22 21 30 26 34 38 38 41 42 39 44 49 53 44 40 44 40 41 41 47 59 59 62 43 57 64 44 46 46 42 45 46 47
38 40 40 46 38 36 38 46 47 31 26 22 14 23 28 26 25 32 36 38 38 38 43 44 49 36 33 37 38 40 48 46 51 49 57 52 59 59 52 54 54 53 51 47 44
38 42 41 42 41 44 42 41 34 30 23 19 26 24 29 28 27 28 31 33 34 36 32 34 45 35 36 32 36 44 37 45 47 61 66 57 60 58 45 45 46 48 52 52 49
36 37 43 39 39 43 47 38 34 30 24 23 20 22 24 25 25 26 27 25 29 29 33 34 35 36 33 37 42 42 49 46 44 50 59 68 65 54 58 55 49 47 44 44 47
34 43 35 33 46 46 45 34 33 30 25 22 20 16 19 19 22 24 26 23 20 23 28 31 32 47 48 39 32 38 43 46 55 56 54 63 69 46 41 38 40 46 46 38 38
37 36 33 40 53 43 35 36 30 30 21 21 20 16 15 17 21 21 22 18 16 20 23 22 31 43 43 38 37 45 44 42 45 50 59 64 66 48 50 57 51 48 45 43 39
32 35 36 43 46 40 34 33 29 24 23 19 17 15 15 15 17 19 21 20 18 22 21 22 29 35 41 37 30 37 41 42 43 50 52 57 60 63 54 52 50 51 46 42 39
35 37 37 46 44 40 37 30 30 28 22 20 19 20 16 18 18 21 19 20 21 19 21 23 33 30 34 34 31 29 28 33 39 42 48 52 51 56 51 50 56 54 46 41 38
37 35 26 34 32 37 35 33 31 26 26 24 22 18 16 16 17 21 21 25 27 23 26 26 37 32 37 31 28 29 32 31 33 35 37 42 48 48 49 45 46 43 38 36 30
34 31 25 36 34 37 34 31 29 23 23 21 18 16 16 13 14 18 20 21 23 25 26 26 30 30 37 28 27 30 32 30 32 33 33 38 38 45 41 41 41 37 35 31 26
Wind_Direction
298 298 299 300 297 296 294 294 294 294 295 296 295 296 296 296 294 290 280 283 286 288 292 288 279 279 279 273 275 277 272 274 282 286 288 287 291 296 301 302 295 298 297 295 73
294 294 294 294 296 295 292 292 292 293 294 294 295 295 295 296 290 280 282 281 281 284 280 274 269 271 270 270 269 266 266 267 276 280 287 288 287 287 287 294 290 292 294 324 67
290 289 290 289 291 291 290 288 289 291 292 294 295 295 295 296 288 282 289 275 279 281 278 274 271 267 268 270 265 266 264 267 269 277 282 281 274 282 285 283 290 294 308 336 337
287 286 285 286 286 285 287 287 284 285 288 290 292 294 294 290 277 293 293 286 286 280 272 267 265 263 266 264 265 268 265 268 266 274 276 276 279 275 280 284 287 282 301 309 280
285 284 283 284 283 281 281 283 283 282 284 286 289 291 288 278 274 293 293 292 290 283 266 261 260 261 264 268 267 265 268 268 267 267 272 275 273 272 268 273 275 279 292 284 269
281 281 280 281 282 282 278 279 280 280 280 282 285 287 280 271 283 283 281 283 285 282 272 261 266 265 271 267 266 274 269 268 269 269 270 268 269 273 267 278 274 281 282 287 276
278 277 278 277 279 281 276 278 280 280 277 278 281 279 273 269 282 280 282 277 278 278 273 273 267 267 271 270 272 271 270 271 268 268 269 274 264 265 256 270 265 263 273 278 280
277 275 274 273 273 274 276 277 277 278 279 276 277 276 270 277 274 271 272 276 277 274 274 278 274 268 268 274 275 268 268 265 270 266 269 270 264 269 269 270 263 262 262 265 272
277 274 272 271 270 269 272 277 276 277 276 277 273 271 271 279 267 266 265 268 272 272 274 276 273 266 268 264 267 266 264 265 268 268 269 263 269 270 271 271 269 268 267 265 265
277 273 271 268 266 264 268 273 273 276 274 274 270 270 268 273 269 267 261 261 265 265 266 266 264 261 260 256 259 262 265 267 267 272 266 266 265 268 271 270 269 267 267 267 266
282 273 269 267 261 261 261 272 270 269 260 256 266 262 278 267 279 267 256 253 259 260 255 260 256 253 255 259 265 268 266 267 270 270 271 268 267 268 265 266 266 266 267 266 266
274 280 269 265 260 253 253 257 263 279 268 257 260 262 265 272 266 264 249 247 251 252 254 258 255 259 266 261 262 264 265 266 272 273 273 271 267 269 267 265 265 265 265 265 267
276 274 276 263 254 245 247 252 266 279 272 267 255 256 261 261 262 255 242 253 249 250 249 252 267 260 257 260 260 262 263 266 269 276 275 275 266 266 267 265 266 266 267 266 266
274 275 272 272 249 242 243 244 256 280 270 267 257 255 254 261 258 257 244 254 256 250 251 258 258 264 259 259 260 262 266 268 270 271 268 274 265 266 268 265 264 265 266 266 268
273 273 266 255 257 240 244 230 233 268 265 267 255 263 242 245 258 248 250 255 252 251 251 257 260 255 257 260 260 266 270 267 269 268 270 266 268 269 268 266 266 268 267 267 268
270 268 266 262 266 235 219 212 224 251 258 263 255 247 243 240 252 259 246 256 257 255 256 257 266 260 261 263 257 272 267 270 270 269 263 262 262 265 266 270 273 272 270 268 268
270 264 262 256 257 221 212 209 237 246 251 255 253 249 244 245 243 251 249 242 249 252 254 257 257 262 266 262 262 256 261 264 263 260 261 267 260 260 269 272 276 280 276 273 271
270 263 257 239 239 212 208 223 241 243 239 251 253 247 249 248 250 244 248 249 246 254 257 254 257 255 257 256 260 254 251 258 262 262 264 264 262 260 274 274 277 276 279 276 274
266 257 250 237 240 214 215 227 235 222 222 234 242 243 252 250 257 244 248 250 247 246 255 257 259 266 263 256 252 258 253 259 267 268 268 266 266 270 270 271 273 274 276 279 274
257 250 241 233 231 221 219 232 231 222 217 216 251 254 250 245 253 244 247 254 254 246 254 265 262 264 264 262 257 255 261 259 258 261 262 265 265 265 272 273 275 274 275 276 270
250 249 233 229 221 226 217 226 222 225 218 229 239 255 253 248 250 250 253 268 248 254 249 258 265 263 266 258 256 257 256 259 265 260 263 265 266 270 270 272 272 275 283 283 276
242 243 227 217 218 226 224 223 220 217 230 238 240 250 249 248 249 256 256 262 262 254 255 256 268 262 262 266 269 263 259 257 257 259 264 263 262 271 285 284 277 277 277 291 292
232 238 226 216 217 219 220 216 221 213 222 230 239 244 250 250 261 257 259 265 265 264 267 265 266 264 268 270 267 260 260 262 263 265 262 264 267 274 273 269 274 278 283 282 290
234 227 223 217 222 217 206 206 214 222 225 229 234 236 241 256 271 260 261 269 271 268 270 274 268 267 265 273 275 264 259 260 261 262 266 265 271 269 270 272 274 276 281 285 282
224 222 222 214 217 218 209 205 203 215 226 225 239 236 242 265 266 262 264 267 271 272 272 272 268 272 273 270 277 272 268 263 262 264 266 271 272 272 275 274 271 274 280 281 276
224 220 227 213 209 205 213 213 206 214 220 228 241 240 247 257 262 262 264 264 265 272 272 271 264 269 277 271 267 273 270 270 269 271 273 275 275 275 274 279 274 269 271 277 278
223 226 221 208 204 205 215 206 207 209 236 235 237 242 246 244 270 277 272 271 270 271 269 268 263 265 269 271 269 269 269 274 276 275 276 275 280 273 278 277 269 272 269 267 270